Location: Saint-Usage
(47.1052°N, 5.2587°E)
Time: 09:30:24
(UTC+02:00)

Envisat - Pass Details

Date: 28 September 2021
Orbit: 764 x 766 km, 98.2° (Epoch: 25 October)

Event Time Altitude Azimuth Distance (km) Brightness Sun altitude
Rises 05:45:19 0° 26° (NNE) 3,242 6.9 -19.0°
Reaches altitude 10° 05:48:10 10° 42° (NE) 2,310 6.4 -18.6°
Maximum altitude 05:52:01 21° 91° (E) 1,660 5.6 -17.9°
Drops below altitude 10° 05:55:49 10° 140° (SE) 2,296 5.8 -17.3°
Sets 05:58:39 0° 156° (SSE) 3,216 6.3 -16.8°
